Location: La Estación
(39.9833°N, 3.9500°W)
Time: 16:05:11
(UTC+00:00)

Cosmos 1470 - Pass Details

Date: 14 June 2025
Orbit: 452 x 466 km, 82.5° (Epoch: 19 July)

Event Time Altitude Azimuth Distance (km) Brightness Sun altitude
Rises 20:14:17 0° 354° (N) 2,509 6.9 -5.3°
Reaches altitude 10° 20:16:24 10° 356° (N) 1,625 5.9 -5.6°
Maximum altitude 20:19:56 73° 82° (E) 488 2.4 -6.2°
Drops below altitude 10° 20:23:25 10° 168° (SSE) 1,601 4.7 -6.7°
Enters shadow 20:24:55 - 169° (S) 2,231 5.5 -6.9°
